Location: Gwatt
(46.7204°N, 7.6223°E)
Time: 10:09:23
(UTC+00:00)

S-56A Canister/Altair - Visible Passes

Search period start: 18 June 2021 00:00
Search period end: 28 June 2021 00:00
Orbit: 632 x 2500 km, 38.9° (Epoch: 17 June)

Date Brightness Start Highest point End Pass type
(mag) Time Alt. Az. Time Alt. Az. Time Alt. Az.
23 Jun 8.8 02:54:41 10° SSW 02:57:58 19° SSE 03:01:11 10° ESE visible
24 Jun 8.9 02:22:42 11° SSW 02:25:31 18° SSE 02:28:31 10° ESE visible
25 Jun 9.0 01:51:33 14° S 01:53:03 16° SSE 01:55:54 10° ESE visible
26 Jun 9.1 01:20:22 15° SSE 01:20:33 15° SSE 01:23:18 10° ESE visible
27 Jun 9.3 00:49:09 14° SE 00:49:09 14° SE 00:50:43 10° ESE visible
27 Jun 8.2 02:46:51 10° SW 02:51:03 29° S 02:54:53 10° ESE visible
